Tracking 25734 objects as of 26-May-2022
HD Live streaming from Space Station
objects crossing your sky now

DMSP 5D-2 F11 DEB

Track DMSP 5D-2 F11 DEB now!
10-day predictions


NORAD ID: 29074
Int'l Code: 1991-082BV
Perigee: 784.4 km
Apogee: 797.0 km
Inclination: 98.7 °
Period: 100.5 minutes
Semi major axis: 7161 km
RCS: 0.0073 m2 (small)
Launch date: November 28, 1991
Source: United States (US)
Launch site: AIR FORCE WESTERN TEST RANGE (AFWTR)

Note: This is SATELLITE DEBRIS
aabbcc
Your satellite tracking list
Your tracking list is empty




NASA's NSSDC Master Catalog

Two Line Element Set (TLE):
1 29074U 91082BV  22145.37796716  .00003421  00000-0  12793-2 0  9996
2 29074  98.6725 198.4587 0008833 291.3384  68.6857 14.32448470919753
Source of the keplerian elements: AFSPC